Aérodrome :
LOGIN :

S'inscrire | Disclaimer

   EN    FR    IT 

 










Légende :    VFR   VFR Marginal   IFR   IFR Intensif   IFR Très Intensif
Visi : 
Plafond : 
>= 8 km
>= 3000ft
5 à 8 km
1000 à 3000 ft
1500m à 5 km
500 à 1000 ft
800 à 1500m
200 à 500 ft
< 800m
< 200 ft
Symboles :   Orages  Brouillard  Fortes neiges  Fortes précipitations  Vent > 20 kt
SIGMETs :   Divers  Orages  Givrage  Turbulence  Onde Orograph.  Cendres Volcan.






- Altitude de l'aérodrome : 1411 ft
- Code IATA : GVA


LSGG - Genève Cointrin

DERNIER METAR :
  • 141050Z 04015KT 9999 FEW050 07/M04 Q1024 NOSIG

METARs EXPIRÉS :
  • 141020Z 05013KT 020V090 9999 FEW050 07/M03 Q1024 NOSIG
  • 140950Z 06012KT 030V090 9999 FEW050 07/M03 Q1024 NOSIG
  • 140920Z 04013KT 9999 FEW050 06/M03 Q1024 NOSIG
  • 140850Z 06009KT 020V090 9999 FEW050 05/M02 Q1024 NOSIG
  • 140820Z 08008KT 040V110 9999 FEW024 04/M02 Q1024 NOSIG

TAF TAF LSGG
Valide du 14 à 09h jusqu'au 15 à 15h UTC


140825Z 1409/1515 04010KT 9999 SCT025 TX11/1415Z TN00/1505Z TX09/1515Z
TEMPO 1410/1420 04015G25KT
ATIS : +41 22 417 40 81



MET'MAP, la Météo Aéronautique d'un coup d'oeil ! - Copyright ORBIFLY Décembre 2007 - Disclaimer

ORBIFLY MET'MAP TEAM :

Programmation & Développement : Alexandra Zaïnal
Sur une idée originale de : Baudouin d'Aumeries
Assistance à la programmation : Marc-Olivier Méhu
Soutien technique & logistique : Manuel Goepfert

Contact : metmap@orbifly.com




SOURCES & CREDITS :

   NOAA